Theta_e
310 310 309 309 308 308 307 307 307 307 307 307 307 307 308 308 309 309 310 310 310 311 311 312 312 313 313 313 313 314 314 314 314 314 315 319 318 318 318 317 317 317 317 315 319 327 333 335 337 340 343 346 349 350 350 353 355 355 357 359 357 357 353 349 347 343 343 344 345 347 349 352 354 352 352 353 353 353 352 352 351 350 350 350 349 348 348 348
312 312 311 310 310 309 309 308 308 308 308 308 307 307 307 308 308 309 309 310 310 310 311 311 312 312 312 313 313 313 314 314 314 315 318 320 319 319 318 318 318 317 317 316 319 325 331 336 338 341 344 347 350 351 352 353 355 355 354 355 356 356 352 346 343 342 339 340 345 348 348 351 353 352 352 354 353 352 352 352 351 351 351 350 350 349 349 348
312 312 312 312 312 311 311 310 310 309 308 308 308 308 308 308 308 308 308 309 310 310 311 311 312 312 312 312 312 313 313 314 315 317 320 321 320 320 319 319 318 318 317 318 320 323 327 333 337 342 346 347 350 352 353 354 356 355 355 356 355 351 349 345 343 344 342 341 343 347 349 350 351 351 352 353 352 351 352 352 351 352 352 351 351 350 349 349
312 312 312 313 313 313 312 312 311 311 310 309 309 309 309 309 309 309 308 308 309 310 310 311 311 312 312 312 312 312 313 314 316 320 322 324 324 322 322 321 318 317 318 318 320 322 323 328 336 342 346 348 350 352 353 354 355 355 357 359 354 348 349 348 345 345 344 342 343 347 349 350 350 351 351 351 352 352 351 351 350 351 351 351 351 350 350 350
312 312 312 312 313 313 313 313 313 313 312 311 311 310 310 310 310 310 310 309 309 309 310 310 311 311 311 311 312 312 312 315 319 323 325 325 324 321 321 322 321 317 317 319 320 322 324 327 335 342 345 346 347 349 351 353 354 352 355 356 353 350 349 347 344 343 342 341 341 346 349 349 350 351 351 351 354 353 350 350 348 347 349 350 350 349 349 350
312 313 313 313 313 313 313 314 314 313 313 313 312 312 311 311 311 310 310 310 310 309 309 310 310 310 311 311 311 312 313 316 320 323 323 322 322 320 318 320 322 319 316 320 320 323 327 329 338 343 344 345 346 347 348 351 351 350 351 349 349 348 346 346 343 341 341 340 341 346 349 349 350 351 350 350 352 350 347 348 348 346 346 346 348 349 349 350
312 312 312 313 313 313 313 314 314 314 314 314 314 313 313 312 312 311 311 311 311 310 310 310 310 310 311 311 311 312 313 316 320 321 320 319 321 321 317 319 322 320 317 318 319 324 328 333 340 344 344 346 346 346 346 347 348 349 349 345 345 345 343 344 343 342 341 340 340 344 348 349 350 351 350 350 349 347 347 349 349 348 347 347 348 349 349 349
311 311 311 312 312 312 313 313 313 314 314 314 314 314 314 314 313 312 312 311 311 311 311 310 310 309 310 310 310 311 312 317 320 319 319 319 321 320 318 321 323 320 317 318 319 324 329 333 339 343 345 346 345 344 345 346 345 346 347 346 344 344 344 344 343 342 340 340 340 343 348 349 350 350 349 350 349 347 348 349 349 349 349 349 348 349 350 349
310 310 310 311 311 312 312 312 313 313 314 314 315 315 315 315 314 313 312 312 311 311 311 311 310 310 309 309 310 311 314 318 320 319 319 320 322 319 318 322 322 318 317 319 322 325 329 331 335 341 343 343 342 341 341 345 346 345 345 345 344 344 344 344 343 341 339 337 338 343 347 348 348 349 350 350 349 348 349 350 350 350 350 350 350 350 350 350
309 308 308 309 310 310 311 311 312 312 313 314 315 315 315 316 315 314 313 312 312 311 311 311 311 310 309 309 310 313 317 319 319 320 320 320 322 319 318 320 319 318 319 322 324 325 327 328 330 337 338 338 338 337 338 340 343 341 340 341 341 341 341 340 338 335 335 334 336 341 346 347 347 349 351 349 348 349 350 351 351 350 350 351 351 350 350 349
308 307 307 307 308 308 309 310 311 311 313 314 315 315 315 316 315 314 314 313 312 312 311 311 311 310 309 310 311 314 318 319 320 321 320 320 322 320 319 319 319 321 322 324 325 323 325 323 325 334 337 335 334 334 334 336 337 336 334 333 332 331 331 330 329 328 329 333 335 338 342 344 344 347 349 348 348 349 350 352 351 351 351 351 351 351 351 349
307 307 307 307 307 307 308 308 309 310 312 314 315 315 315 315 315 315 314 313 312 312 311 312 311 310 309 308 310 315 317 318 319 319 320 321 320 319 319 320 321 323 324 325 325 324 325 324 326 333 335 333 334 334 334 334 332 332 329 327 327 326 326 325 325 325 328 333 335 336 338 340 341 344 346 347 349 349 350 352 352 352 352 352 352 352 352 350
307 307 307 307 307 307 308 308 308 309 311 313 314 314 315 314 314 313 313 313 312 312 312 311 311 310 309 309 312 316 316 317 318 318 320 321 320 320 320 320 321 323 324 324 324 323 323 323 325 330 331 331 333 334 334 332 329 332 329 326 327 326 326 328 326 325 329 332 335 336 336 338 341 341 344 347 350 351 351 352 352 352 353 352 353 352 352 352
307 307 308 308 308 308 308 309 308 309 310 312 313 314 314 313 313 314 315 315 314 313 312 312 311 310 308 310 314 315 315 316 316 317 319 320 320 319 320 321 321 321 323 323 322 322 321 323 324 325 327 328 331 331 331 329 327 330 329 326 325 324 327 328 326 329 333 333 336 337 334 336 338 339 345 349 349 352 351 352 352 352 353 352 353 352 352 353
307 307 307 308 308 308 309 309 309 309 310 311 313 313 312 312 315 318 318 318 318 318 316 314 311 310 310 312 313 315 316 316 316 318 319 320 320 320 320 321 322 321 322 322 322 322 322 323 325 325 324 325 327 327 327 328 327 326 327 328 326 323 326 328 326 329 333 335 336 336 335 338 338 340 348 350 349 351 351 352 352 351 353 352 353 353 352 353
305 305 306 306 307 308 308 309 309 310 310 310 312 312 312 314 317 318 319 319 319 319 317 315 311 310 312 314 314 316 317 317 317 318 318 319 319 320 320 321 321 322 321 321 322 322 323 324 325 324 324 326 328 327 326 326 327 328 327 326 325 323 325 327 326 326 330 337 337 336 339 344 344 345 349 350 350 351 351 352 352 351 352 352 352 352 352 353
303 303 304 304 304 305 307 308 309 310 311 311 311 312 313 315 317 318 320 318 318 319 317 315 314 313 315 316 316 317 317 318 319 318 319 319 319 319 320 320 322 323 322 322 322 323 324 324 325 326 326 327 328 327 324 321 324 328 326 323 323 323 323 325 326 326 331 339 339 336 340 345 349 349 349 351 350 350 350 351 352 351 351 352 352 352 352 353
303 303 303 303 303 304 305 305 307 310 311 311 311 312 314 315 316 318 320 319 317 318 318 319 318 317 318 318 317 318 319 320 320 320 321 321 321 320 319 320 323 324 323 324 324 324 324 324 326 327 327 327 328 325 321 321 326 328 325 322 323 323 323 323 325 326 330 337 340 339 338 342 351 351 349 350 350 350 350 350 351 351 351 351 351 351 352 352
302 302 302 302 303 303 304 304 305 308 311 311 311 313 314 314 315 318 321 320 316 316 320 321 320 319 318 318 317 318 319 320 321 322 323 323 324 322 320 321 323 324 324 326 326 324 324 324 324 325 326 326 327 324 322 326 329 328 327 325 323 322 323 323 325 326 326 333 340 341 337 340 352 352 350 350 350 349 350 350 351 351 351 351 351 351 351 352
301 302 302 302 303 302 303 303 304 308 310 310 311 313 312 311 314 316 316 317 315 315 317 318 318 319 319 319 318 319 319 319 321 322 324 324 326 325 321 320 322 324 325 327 326 323 324 326 324 324 325 326 326 326 326 328 328 327 326 324 322 321 321 323 325 326 326 333 342 344 339 340 351 352 349 349 350 349 349 350 351 350 350 351 351 351 351 351
301 302 301 302 302 302 303 302 304 308 308 308 311 311 309 307 311 312 310 313 315 315 315 316 316 316 318 318 318 318 318 319 319 321 323 325 326 325 321 320 323 324 325 325 324 322 324 326 324 324 327 328 327 327 327 327 327 326 325 323 322 321 321 322 324 326 328 333 340 345 342 341 349 352 350 349 350 349 349 349 350 350 350 351 351 351 351 351
301 301 301 302 302 302 303 302 305 309 307 308 311 309 306 305 307 308 307 310 313 314 315 315 315 314 316 317 317 317 317 318 319 319 323 325 326 325 322 320 322 324 324 324 324 322 322 324 325 324 326 328 328 327 326 326 326 324 324 322 321 321 322 323 324 325 326 328 333 339 339 339 347 351 349 350 350 349 349 349 349 350 350 350 351 350 350 351
301 301 301 302 302 302 303 302 306 308 306 308 310 307 306 305 305 307 309 310 312 313 315 316 315 315 316 317 317 316 315 317 318 319 321 323 324 324 322 320 321 323 323 324 325 323 321 322 323 323 324 327 326 326 325 325 324 323 322 320 320 322 321 323 325 325 325 325 331 337 339 343 349 351 351 349 349 350 349 349 349 349 350 350 350 351 350 350
301 301 301 301 301 302 303 302 305 306 305 309 310 307 306 306 306 308 310 312 313 313 315 316 316 315 316 317 316 316 316 316 317 319 320 322 323 323 322 320 321 322 323 324 325 324 323 322 322 322 324 325 325 325 325 324 324 323 323 321 320 322 321 323 325 326 327 326 332 336 337 348 354 352 354 350 348 350 348 349 349 348 350 349 349 350 350 350
301 301 301 301 301 302 302 302 304 304 304 309 310 307 306 306 306 309 310 313 315 314 315 316 315 314 315 315 315 316 316 316 317 319 319 321 323 323 321 320 321 322 322 323 323 323 324 322 321 323 324 324 324 325 324 324 324 323 324 323 322 323 322 323 324 325 324 323 331 331 326 342 357 350 350 352 349 350 349 348 349 348 349 349 349 350 350 350
301 301 301 301 301 301 302 302 303 303 304 308 308 307 306 306 308 310 311 314 318 317 315 316 315 316 316 315 314 315 317 318 318 319 319 320 324 324 322 321 321 322 321 322 322 322 323 322 321 323 323 324 324 324 323 324 323 321 324 326 324 323 322 323 322 322 322 323 331 330 323 335 350 346 346 350 351 351 350 349 348 348 349 349 349 349 350 350
300 300 301 301 301 301 302 302 302 303 306 307 306 307 307 307 308 311 313 317 322 320 316 316 316 316 316 315 315 317 319 320 318 319 318 320 324 324 324 322 321 321 321 322 322 322 323 322 322 323 323 323 323 322 323 324 322 321 326 328 325 325 324 323 322 320 323 326 327 330 328 327 332 340 345 347 351 352 351 351 348 347 349 349 349 349 349 349
300 300 300 301 301 301 301 303 304 305 308 307 305 307 308 308 310 312 314 320 325 323 318 316 315 315 315 315 316 317 318 318 317 319 318 320 324 323 323 322 321 322 321 321 320 321 324 323 322 323 322 322 321 322 324 323 323 323 326 326 325 325 324 323 322 321 325 323 318 323 327 321 324 341 346 343 348 351 350 351 348 347 348 348 349 348 349 349
300 300 300 300 301 301 301 304 305 306 308 308 305 307 308 308 311 313 316 321 324 321 318 316 315 314 314 314 316 316 315 315 316 317 318 321 323 323 323 322 321 322 322 321 322 323 324 322 322 322 322 322 322 324 325 323 323 324 324 325 324 323 324 325 323 321 322 320 316 320 322 318 323 339 344 340 344 348 348 350 348 346 347 347 348 348 348 349
300 300 300 300 301 301 301 304 305 306 308 308 306 306 308 310 313 316 320 322 321 319 317 317 316 314 314 314 314 314 314 314 315 316 317 321 323 322 322 321 321 323 322 322 323 323 324 322 322 322 322 322 323 323 323 323 323 323 324 324 323 324 325 327 328 323 318 317 317 318 321 319 319 329 338 340 343 344 344 347 346 345 345 345 347 348 348 348
300 300 300 301 301 302 303 304 305 306 308 309 307 307 309 312 317 320 322 321 318 319 319 318 316 315 316 315 314 314 315 314 315 316 318 320 321 322 322 322 322 322 322 321 322 322 322 324 324 324 322 322 323 322 321 322 322 322 325 323 322 326 324 321 323 322 316 316 319 319 322 320 316 323 337 340 340 341 342 344 345 344 344 344 345 346 347 348
300 299 300 301 302 304 305 305 305 306 308 309 308 308 310 312 315 317 319 319 317 318 318 316 316 315 316 316 315 316 316 315 315 316 316 318 321 322 322 323 322 320 320 320 320 322 322 324 325 324 323 323 323 323 321 321 322 322 325 322 321 323 321 318 319 320 317 318 323 323 321 319 318 327 339 340 337 338 338 340 341 342 342 342 344 344 346 347
300 300 300 302 304 305 305 305 305 305 307 309 308 309 313 314 315 315 315 317 317 315 315 315 315 315 316 317 318 317 316 316 316 316 317 317 320 322 322 323 323 322 323 320 319 320 320 322 322 322 324 324 323 323 321 321 322 321 321 320 319 319 318 319 320 320 318 319 324 325 321 320 322 330 335 336 337 337 335 337 338 339 341 342 342 343 344 345
300 300 300 303 305 305 305 304 304 304 306 310 310 311 313 314 317 317 315 315 315 314 315 316 315 316 317 318 317 316 315 316 316 316 317 318 320 321 322 322 321 325 327 322 318 319 319 320 323 322 322 324 324 324 323 324 323 320 322 321 320 320 320 320 320 319 319 321 321 320 320 322 323 328 335 331 331 334 333 335 337 337 339 340 340 341 341 343
300 300 301 304 304 303 304 303 303 303 304 309 312 312 312 312 315 317 316 316 315 314 315 315 315 317 319 319 316 315 317 317 316 315 317 319 320 321 322 322 321 323 325 321 319 320 318 320 324 322 321 323 324 324 324 324 321 320 322 321 319 321 321 320 322 323 321 319 320 321 325 330 329 332 338 331 328 334 334 335 336 336 338 337 338 340 339 341
300 300 301 304 303 302 303 303 302 302 304 309 312 311 311 311 313 314 315 315 314 314 315 316 317 318 320 320 317 315 317 317 316 316 316 318 319 320 321 322 322 322 322 322 322 321 317 320 324 321 322 323 324 324 322 323 323 320 319 319 320 322 320 319 320 323 320 316 321 324 326 330 328 331 337 332 330 334 334 336 336 334 337 336 336 338 338 339
300 300 301 303 303 302 303 303 303 302 305 310 313 313 312 310 312 314 314 314 313 314 316 317 319 318 317 319 317 315 316 317 317 317 317 318 318 317 318 321 321 320 321 321 322 324 320 321 324 321 322 322 321 323 322 322 324 321 318 319 320 321 321 321 318 318 317 316 320 323 322 323 324 331 342 337 334 335 335 337 338 335 336 336 336 337 337 338
301 300 301 302 302 302 303 304 303 303 308 313 314 315 315 313 313 314 314 314 314 315 315 317 318 316 316 318 317 314 316 318 317 316 318 319 317 315 315 318 318 317 318 317 319 324 321 319 323 323 323 322 321 322 322 321 320 320 321 322 322 320 318 319 319 318 318 318 319 321 324 324 324 332 342 337 335 339 336 337 338 337 337 336 336 338 337 337
301 301 301 302 302 302 303 304 304 306 312 314 314 315 315 314 314 313 313 314 315 315 315 316 316 316 316 316 316 314 315 317 317 316 319 319 316 314 313 314 315 316 317 318 319 323 322 319 321 322 322 322 322 321 320 319 320 321 321 320 322 322 318 318 320 320 319 319 320 320 319 322 326 336 342 339 339 340 336 337 339 337 337 336 337 338 338 338
301 302 302 302 303 303 305 307 308 310 314 316 314 313 312 313 313 313 312 313 314 315 316 315 315 315 316 315 314 314 314 316 316 317 318 317 315 314 312 312 314 315 318 319 320 322 322 320 319 321 321 320 320 321 320 320 320 319 319 318 317 319 319 318 319 320 319 319 321 318 315 321 334 341 341 342 342 339 336 337 338 336 335 336 337 338 339 339
302 302 303 302 304 304 307 309 308 310 312 312 311 309 308 310 311 311 310 310 312 314 315 315 315 315 315 314 313 314 315 316 317 317 317 315 315 314 313 312 312 314 319 325 325 324 324 322 318 318 319 317 320 322 322 323 322 320 320 318 317 318 318 317 317 319 319 319 324 322 314 320 337 341 340 344 346 341 337 336 336 335 333 335 337 337 338 339
302 302 302 303 305 305 307 308 306 307 308 307 307 307 307 309 310 310 310 309 309 311 312 313 313 314 313 314 314 315 316 318 318 318 317 314 313 312 312 311 312 316 321 325 325 324 325 324 319 318 320 320 323 323 322 322 323 322 322 321 320 320 318 316 317 319 319 318 324 325 316 321 338 341 338 344 347 341 333 332 335 333 331 335 337 337 339 339
302 303 302 303 305 305 306 307 306 305 306 306 306 307 307 308 308 309 309 308 309 309 310 311 311 312 312 313 314 314 315 317 317 317 316 314 311 311 311 311 312 317 321 323 324 323 324 325 321 321 325 323 323 324 323 324 322 321 322 322 320 320 319 318 321 324 321 317 320 320 315 320 336 343 339 338 338 333 328 328 331 331 331 334 335 336 338 338
302 303 303 302 304 305 306 306 305 305 306 306 306 306 307 307 307 308 308 308 309 308 308 309 310 311 311 312 313 313 314 317 316 314 313 313 312 311 311 311 312 316 320 323 323 321 324 327 322 320 321 319 319 322 321 322 322 322 323 323 321 321 320 319 323 324 320 318 320 318 315 323 341 347 340 335 334 335 332 327 326 329 330 332 334 335 336 337
302 303 303 302 303 304 305 305 304 304 305 306 305 305 305 306 306 307 308 308 309 308 308 309 309 309 310 311 313 312 312 314 314 313 312 312 312 311 310 311 311 314 318 321 320 319 324 329 324 319 320 318 318 322 323 322 322 323 324 323 322 322 320 319 320 318 318 323 321 316 319 334 346 340 332 332 335 336 334 327 325 329 330 330 333 333 334 336
303 302 303 303 303 303 304 304 304 304 304 305 305 305 305 305 306 307 308 309 308 308 308 308 308 309 308 309 311 312 311 312 312 313 312 311 311 311 310 311 311 314 318 318 316 319 325 330 326 322 323 321 321 324 325 323 322 321 321 322 323 323 321 320 318 316 322 327 320 319 327 331 330 328 329 334 335 334 335 331 325 327 329 330 332 331 333 334
302 302 302 303 303 303 303 303 303 304 304 304 304 305 305 305 306 307 308 308 308 307 308 308 308 308 308 308 309 311 311 312 311 312 311 311 311 310 310 310 311 314 317 314 314 321 325 326 326 324 324 322 322 322 322 322 322 322 321 321 322 323 322 320 318 320 328 325 316 326 338 327 323 332 335 337 340 339 342 336 325 323 326 327 329 330 331 331
302 302 303 303 303 304 303 303 303 304 304 304 304 305 305 305 305 306 307 307 307 307 308 309 308 308 308 308 309 311 312 312 312 312 310 311 311 310 310 311 311 312 313 311 313 319 322 324 325 322 320 320 319 320 320 321 322 322 322 321 320 322 322 319 320 324 329 322 316 329 340 329 329 338 337 340 344 338 336 332 324 324 326 325 326 327 328 327
302 303 303 303 303 303 303 303 304 304 304 304 305 305 304 304 305 305 305 305 306 307 307 308 308 307 307 307 308 310 311 311 313 312 310 311 311 310 311 312 312 311 310 310 312 315 320 326 325 319 318 319 318 320 322 321 321 322 322 321 320 321 321 320 322 324 325 323 322 332 339 332 329 334 335 334 331 326 327 327 324 326 327 327 327 326 327 328
303 303 303 303 303 303 303 303 304 304 303 304 305 305 304 304 304 304 305 305 305 306 306 307 306 306 307 307 308 308 309 310 311 311 310 310 310 310 312 313 312 310 309 310 312 314 317 323 323 318 319 320 319 321 321 320 321 321 321 321 320 320 321 320 321 323 323 324 324 328 334 333 332 335 334 326 320 321 326 327 325 326 326 327 330 329 329 330
302 302 302 302 302 303 304 304 303 303 303 303 305 304 303 304 304 304 304 305 305 306 306 305 306 305 306 307 307 307 308 308 309 309 309 309 309 310 311 312 310 310 311 312 313 314 317 321 322 321 321 322 321 320 319 319 321 321 321 323 322 320 320 320 322 324 323 324 325 324 325 328 333 336 333 325 322 326 330 326 323 325 328 329 331 332 330 329
302 302 302 302 302 303 303 303 303 303 303 303 304 304 303 303 304 304 304 305 306 306 305 305 305 305 306 306 307 307 308 308 308 309 309 309 309 309 310 310 310 310 311 312 313 316 318 319 321 321 323 325 321 318 318 321 322 321 320 322 322 321 322 321 321 325 325 324 324 323 322 326 332 334 332 328 328 330 330 323 319 323 327 328 329 329 328 328
Wind_Speed
16 16 16 15 15 15 15 15 15 15 15 15 16 16 17 17 17 18 18 18 18 18 19 18 17 16 17 18 18 19 19 21 20 22 26 19 14 17 17 17 16 13 14 17 17 18 25 25 26 26 24 22 14 15 19 11 8 7 2 1 2 3 3 4 4 3 3 2 5 15 20 13 8 13 13 10 10 16 18 8 13 14 4 10 18 24 33 31
18 17 17 17 16 16 17 17 17 16 16 16 16 17 17 17 17 17 18 18 18 19 19 19 18 16 16 17 18 18 20 21 21 26 24 15 15 18 16 18 20 19 16 18 22 21 26 29 29 27 25 20 11 13 15 12 11 7 2 1 4 4 3 5 4 3 3 1 7 14 20 17 13 17 17 10 9 16 11 7 14 11 8 14 19 28 33 31
18 18 18 18 18 18 18 18 18 18 18 17 17 18 17 18 18 18 18 18 18 19 19 19 19 17 16 16 17 17 18 20 24 25 15 7 11 14 16 20 21 21 19 19 22 21 21 26 30 27 24 16 10 13 13 12 11 8 5 2 6 6 6 8 7 10 11 4 10 11 17 15 16 20 16 9 11 13 10 12 16 14 19 21 25 33 33 32
18 19 18 18 18 18 18 18 19 19 19 19 19 19 19 19 18 18 18 18 19 19 19 19 19 18 16 16 16 15 16 17 19 14 3 3 5 7 13 19 20 22 20 17 19 17 15 21 29 27 21 12 10 13 12 13 10 8 9 4 5 4 6 9 8 11 14 6 15 13 12 10 16 20 15 15 11 6 12 22 25 25 29 29 34 37 35 35
20 20 19 19 19 19 19 19 19 19 19 19 20 20 20 20 20 19 19 19 19 19 20 19 18 18 17 16 15 14 11 9 6 3 4 3 4 5 11 16 21 24 23 19 18 16 14 22 28 24 17 9 9 10 10 18 14 5 10 10 9 6 6 12 8 5 8 4 13 12 10 12 17 17 18 20 12 9 22 31 30 32 34 34 40 39 38 37
21 21 21 21 21 20 20 19 19 19 20 20 20 21 21 21 21 20 20 19 19 19 20 20 18 17 17 15 15 13 6 4 5 5 3 9 9 7 8 16 22 25 26 23 21 18 19 26 28 21 14 7 9 9 7 21 19 6 7 10 13 12 10 19 16 5 4 3 10 13 14 18 17 12 20 26 17 12 22 31 30 31 33 35 42 42 41 39
22 22 22 23 23 23 22 22 21 21 21 20 21 21 21 21 22 21 21 20 19 19 19 20 19 17 16 15 15 12 11 17 12 4 12 14 12 8 6 15 23 27 28 26 24 21 23 29 28 21 12 5 8 10 7 14 18 11 7 6 11 15 16 23 25 15 9 8 11 17 17 18 17 12 17 27 26 12 11 26 30 29 34 36 42 42 42 41
21 22 23 23 23 24 24 24 24 23 23 22 22 21 22 22 22 22 22 21 21 20 20 20 18 17 15 14 14 12 17 25 14 9 15 14 11 8 5 15 24 28 29 27 26 24 24 29 28 20 10 6 6 6 9 8 9 11 9 7 10 16 21 25 27 23 16 13 15 16 16 21 26 19 16 27 30 12 9 23 29 30 35 38 43 42 41 41
21 22 22 23 23 23 24 25 25 25 25 25 24 23 23 23 22 22 22 21 20 19 21 19 18 18 15 15 13 10 20 24 14 11 12 10 9 5 6 15 24 28 28 25 23 24 25 27 28 21 7 8 8 3 7 7 5 9 10 11 12 16 22 24 22 24 21 15 14 14 12 21 27 17 12 25 25 13 13 24 29 33 37 38 42 42 42 41
22 22 23 23 23 23 24 24 25 25 26 26 25 25 24 24 23 23 22 21 20 20 20 19 18 17 15 15 9 7 16 13 5 5 4 9 8 4 8 16 23 25 24 22 21 23 25 21 24 22 7 7 9 7 7 6 4 7 12 15 16 18 23 23 19 23 21 13 14 16 11 18 23 13 8 17 21 16 19 27 30 35 37 39 40 41 42 41
24 24 24 24 23 24 24 24 25 25 26 26 26 26 25 25 23 22 22 21 21 19 19 19 18 16 16 15 12 12 15 11 9 5 3 11 9 5 9 17 22 22 22 21 21 21 20 16 18 20 9 7 7 5 9 10 9 12 14 13 14 15 18 20 16 18 13 8 17 20 9 10 15 12 11 17 23 22 25 30 32 35 36 38 38 39 40 40
26 26 25 25 25 25 25 25 26 26 26 26 26 26 26 25 23 22 22 21 21 19 19 19 17 17 15 17 26 25 16 13 13 11 8 10 8 5 7 13 19 21 21 20 20 18 17 16 18 21 11 6 5 1 5 8 8 11 9 7 10 7 10 15 11 12 7 5 16 17 3 4 12 13 13 20 26 26 28 32 33 35 35 36 37 37 38 39
27 27 27 27 27 27 27 27 26 26 26 26 26 25 25 23 22 21 20 18 18 17 18 17 16 17 14 17 29 27 17 15 16 16 15 11 7 7 8 13 17 18 19 18 16 14 16 17 20 25 18 7 4 3 4 3 2 7 4 3 6 6 8 9 5 6 5 5 17 18 2 7 14 12 15 23 29 29 29 31 33 33 33 34 36 36 37 38
27 28 28 29 29 29 29 28 27 27 27 27 26 25 23 21 19 18 17 16 15 14 16 17 16 16 15 21 27 23 19 20 23 22 19 16 13 10 10 14 18 18 18 17 14 12 14 18 20 21 20 14 8 4 6 5 3 3 3 2 2 2 7 5 2 3 2 6 22 20 4 9 12 11 21 28 34 34 30 30 33 34 33 34 35 36 36 38
27 28 29 29 29 30 30 29 29 27 27 27 25 23 21 17 15 14 13 12 11 11 13 14 16 14 13 22 26 21 19 20 23 23 21 20 19 16 13 15 20 21 19 18 16 13 12 16 19 14 11 15 13 6 4 4 2 1 1 4 2 2 6 7 2 6 4 7 21 18 4 6 7 11 25 32 35 35 31 31 33 34 34 34 35 36 36 37
29 28 28 29 29 30 30 30 30 28 27 27 23 20 17 14 12 10 9 7 6 6 6 9 13 12 6 13 16 15 17 17 16 18 22 24 22 19 15 15 17 20 21 19 18 17 10 9 14 14 10 8 7 3 0 3 3 2 2 4 4 3 4 7 5 4 6 4 12 13 5 2 3 11 26 32 35 33 28 29 32 33 34 35 35 35 35 36
30 30 29 29 29 30 30 30 30 28 27 25 21 17 14 12 9 7 6 5 6 3 2 4 7 8 9 11 10 10 11 11 10 12 17 22 23 22 20 17 16 18 20 19 18 15 9 7 8 8 8 5 3 5 3 6 6 2 1 3 4 4 3 5 5 2 1 3 7 11 9 4 3 10 24 31 34 31 26 27 31 32 33 34 35 34 35 37
32 32 31 31 30 30 30 30 30 29 26 22 19 15 13 10 8 10 10 8 8 3 1 4 7 2 10 12 11 7 4 5 7 10 12 16 20 22 23 21 19 18 16 13 12 12 9 8 7 3 4 5 4 7 7 7 5 3 4 3 4 4 4 6 5 3 2 1 5 8 10 8 3 6 18 27 33 30 26 28 31 31 32 33 34 34 35 37
33 33 33 33 31 31 30 29 31 28 22 19 17 13 10 9 8 10 10 10 9 4 3 6 11 4 6 7 9 9 8 7 7 9 12 14 16 20 23 21 20 20 13 7 6 11 11 5 5 6 5 7 7 8 8 4 6 6 6 4 4 4 5 5 5 6 3 3 5 6 10 10 4 7 13 21 29 27 24 25 26 28 30 31 32 34 36 38
33 33 34 34 33 33 29 30 30 23 20 20 17 11 8 11 6 6 12 18 17 16 16 16 18 19 20 17 14 11 10 11 10 10 11 12 15 20 22 18 15 15 10 6 4 10 13 6 6 8 6 7 8 8 8 5 5 6 4 4 5 4 7 5 3 7 3 1 6 6 10 10 6 7 10 19 24 20 19 20 23 27 29 31 33 34 37 41
33 32 34 34 33 34 29 31 27 17 21 20 14 12 11 12 6 6 19 24 21 20 26 28 27 31 34 31 26 19 14 11 13 14 10 12 16 17 20 18 10 7 7 8 7 7 11 9 9 9 7 8 8 7 8 7 6 6 5 4 5 6 8 5 3 7 3 1 6 5 6 8 6 7 8 15 17 17 21 22 24 30 30 32 35 36 39 40
32 32 34 33 33 34 30 32 22 12 21 15 8 15 15 15 11 8 13 17 26 28 27 29 30 36 39 36 34 29 18 11 16 20 14 13 17 16 16 15 9 6 6 7 6 4 6 9 9 9 7 8 7 7 9 8 7 5 5 4 5 6 5 4 3 5 3 3 7 6 6 8 6 8 9 13 16 20 27 30 31 35 33 33 36 38 39 35
31 31 34 33 34 33 30 30 17 9 20 11 5 15 17 18 16 12 9 11 25 29 25 29 31 37 39 36 34 28 20 14 17 24 21 18 19 19 17 13 10 8 7 8 9 7 6 7 8 11 8 9 6 6 8 6 5 5 5 4 6 5 2 3 4 4 3 4 5 4 4 5 2 5 9 15 20 17 20 25 27 31 34 37 40 41 39 36
30 30 32 33 34 33 30 27 14 10 19 9 4 12 17 18 16 15 11 8 14 16 19 25 25 31 33 28 24 25 26 21 17 22 25 25 21 18 16 13 11 8 8 12 13 10 7 6 8 13 10 11 8 6 8 6 4 5 6 7 8 5 3 4 3 4 3 3 3 1 3 5 2 6 7 12 18 15 17 21 22 25 31 34 34 35 37 38
30 30 31 33 34 34 31 24 15 17 18 5 2 11 16 17 15 14 10 5 8 8 10 13 15 20 21 16 15 21 21 19 25 28 26 30 28 15 10 13 11 9 12 12 10 9 9 5 8 12 9 10 10 7 7 7 5 5 7 10 10 6 3 2 1 4 4 5 3 2 2 6 3 7 8 8 11 14 16 18 22 26 29 30 31 32 35 37
30 31 31 32 34 35 30 23 20 23 16 1 4 12 14 14 12 10 5 1 5 5 2 3 7 7 6 12 16 15 8 10 26 33 25 27 32 19 8 9 8 9 12 8 4 5 6 7 9 9 9 10 10 9 8 9 5 6 6 9 9 6 4 4 1 1 1 4 5 1 3 5 5 5 8 7 10 14 15 15 20 26 28 31 34 34 36 37
30 32 31 31 34 34 30 25 21 22 16 8 9 12 13 12 9 5 1 2 4 4 3 3 4 2 2 12 22 17 3 3 10 24 29 28 30 24 11 7 6 8 8 5 3 3 6 10 9 9 9 9 9 8 8 10 7 5 5 8 7 6 6 6 5 4 4 4 5 2 4 4 5 6 8 8 9 11 13 14 16 22 29 33 35 35 38 39
30 32 31 31 32 30 28 23 18 19 20 18 14 12 12 10 5 1 2 2 4 2 3 2 3 3 2 12 27 17 2 2 4 14 30 30 27 21 11 9 10 9 10 9 7 4 8 12 12 12 10 7 8 7 9 12 8 5 6 7 6 6 6 5 6 5 3 1 6 5 5 4 6 6 4 7 10 10 15 18 15 20 29 34 35 37 39 41
31 32 33 32 30 27 23 19 18 20 22 21 15 11 11 8 3 1 2 2 4 1 2 3 4 3 4 11 20 14 6 2 3 7 25 29 27 18 8 11 11 7 10 12 10 4 6 14 18 14 9 8 7 6 11 13 9 4 6 2 0 2 2 3 5 4 1 2 9 7 6 5 6 5 2 4 9 12 14 16 15 20 28 33 35 38 39 40
31 32 33 33 30 26 19 14 16 20 22 21 15 9 8 3 1 3 2 4 2 2 3 4 3 4 3 6 7 11 7 5 6 7 20 21 22 15 7 11 10 5 5 8 10 6 1 10 16 10 9 11 9 7 10 13 9 5 4 3 3 3 3 2 1 2 1 6 10 9 8 6 6 5 5 5 7 12 13 11 13 18 25 30 34 37 40 41
31 32 33 33 27 21 17 15 16 20 21 20 14 8 4 0 2 3 5 3 3 3 5 4 3 5 2 1 3 5 5 5 2 7 11 10 12 9 5 8 6 4 3 5 8 7 3 3 6 6 12 13 7 6 8 9 8 6 4 4 2 4 3 2 2 3 4 9 7 7 8 7 8 6 5 7 9 14 14 13 15 17 24 32 36 39 42 44
32 32 32 30 21 12 15 19 19 20 20 16 12 7 1 1 1 4 4 4 3 2 3 2 3 5 4 3 3 5 3 3 3 5 6 6 8 9 7 8 7 5 6 7 4 3 5 5 2 4 12 14 8 4 5 4 6 6 4 6 4 2 2 2 2 1 6 9 4 6 7 6 9 6 6 10 11 13 13 16 19 20 26 35 39 42 44 45
31 33 31 24 14 10 14 19 19 20 20 13 9 5 2 2 4 5 4 3 1 2 3 2 5 6 4 3 3 4 3 3 4 5 5 5 6 9 7 5 8 7 4 6 5 3 3 5 4 4 6 12 12 7 5 4 5 8 6 6 6 4 3 5 4 2 5 6 4 4 5 4 7 5 9 13 12 15 19 23 28 29 32 39 44 46 45 45
31 33 29 17 13 13 16 18 19 20 19 12 6 2 3 5 4 2 3 3 1 3 4 4 7 6 3 2 3 3 1 2 1 3 6 5 5 8 5 3 7 6 4 4 4 6 6 5 8 10 5 10 13 10 8 6 5 7 6 6 5 5 5 5 4 4 5 5 3 1 4 5 5 5 10 14 15 20 25 30 34 35 37 40 41 40 39 42
30 32 25 12 13 18 16 19 20 19 18 12 3 0 5 6 2 1 2 3 2 4 7 7 5 3 3 2 3 6 3 2 6 3 4 6 5 6 6 5 7 5 5 5 3 4 9 8 6 9 8 12 13 9 9 9 5 5 5 5 6 6 5 3 4 6 3 3 3 2 3 5 5 5 6 8 12 16 21 26 29 30 35 35 31 30 34 40
30 31 21 10 16 21 18 19 20 18 16 8 0 3 5 3 1 0 2 3 2 5 8 7 2 2 4 3 3 7 5 4 6 5 0 4 4 2 3 5 6 7 6 6 4 3 5 7 2 4 6 11 14 10 10 9 5 3 5 7 6 6 7 4 5 3 1 3 4 3 3 5 4 5 6 6 9 10 13 17 19 26 33 30 25 28 35 39
33 34 21 12 20 23 19 18 17 16 12 1 3 4 3 1 1 1 4 5 4 5 4 3 2 1 2 3 3 7 7 5 5 5 2 1 2 5 5 3 3 3 3 3 4 4 4 5 3 7 8 11 13 13 10 11 10 6 6 7 3 5 4 4 2 3 3 5 5 2 4 5 3 5 4 5 7 10 11 12 14 21 27 25 24 29 35 39
34 32 19 15 22 23 19 17 14 12 5 3 3 5 1 2 5 5 6 7 6 4 1 0 2 1 2 2 2 6 6 4 5 5 2 1 2 6 5 5 7 7 8 9 4 3 3 4 5 8 12 7 7 10 5 7 10 6 5 7 5 3 4 3 3 5 4 5 4 3 5 5 6 5 3 6 10 11 11 11 12 15 18 20 26 31 35 38
32 26 15 16 23 22 20 16 11 6 2 2 3 4 2 3 7 11 14 12 6 3 1 3 2 2 2 2 2 4 5 3 4 3 2 2 0 4 9 6 7 11 13 7 1 2 2 3 5 6 8 6 5 6 6 6 7 2 3 5 4 3 4 4 4 4 4 4 4 3 5 5 6 6 6 9 12 12 12 12 12 14 17 24 29 32 35 37
29 18 11 19 23 20 16 10 4 1 2 0 2 2 5 5 8 15 18 14 5 3 2 2 2 3 2 3 3 2 2 2 4 2 0 3 2 3 9 9 7 12 15 6 1 1 1 4 5 4 1 5 4 5 9 10 8 5 4 5 4 2 2 3 2 3 4 4 4 3 5 6 5 6 9 11 12 13 13 12 11 14 21 29 34 36 38 39
24 9 10 21 21 17 13 11 8 4 1 2 3 4 8 7 8 13 16 15 6 4 4 4 4 3 2 3 3 1 2 1 2 1 1 3 4 2 8 11 8 10 10 5 3 3 1 2 4 2 1 3 4 8 13 15 12 9 7 7 7 4 4 4 4 3 3 4 5 3 6 8 5 5 8 10 10 11 12 12 10 13 22 29 34 38 39 39
16 6 12 21 19 18 13 8 6 5 1 5 7 7 9 9 8 9 11 14 9 3 4 4 4 3 2 2 2 1 2 1 2 1 1 4 4 2 9 16 13 10 6 3 2 2 1 1 3 4 3 4 6 8 11 13 14 12 9 8 8 6 5 6 7 4 3 3 2 3 5 9 5 7 8 9 9 10 12 12 10 15 24 28 31 36 38 38
12 12 16 19 18 18 12 4 5 6 2 7 10 9 9 9 8 9 8 9 7 4 4 3 2 2 2 1 2 2 2 1 2 2 3 4 4 4 14 21 17 10 6 3 3 5 4 1 3 3 3 3 6 6 5 4 6 9 8 7 8 8 8 7 6 4 4 4 3 2 7 8 4 5 8 7 7 7 10 14 14 17 23 26 29 35 37 38
15 18 15 17 17 16 11 4 5 5 5 9 10 8 8 8 9 11 8 6 6 5 3 3 3 3 3 3 3 3 3 2 3 4 4 2 2 7 17 22 16 8 5 5 6 5 4 1 1 1 2 4 4 5 5 4 2 4 5 7 10 11 11 7 3 4 3 7 8 6 8 7 4 3 4 6 6 6 9 13 16 17 19 21 25 30 33 34
16 11 10 18 19 14 12 7 5 5 6 9 9 8 8 7 8 12 11 7 8 7 3 4 6 5 5 5 3 4 5 4 2 3 4 3 1 6 15 20 12 6 7 11 12 5 2 1 1 1 5 7 5 5 4 2 3 4 4 8 12 13 15 10 4 4 6 7 9 8 8 6 6 4 4 6 6 6 9 10 12 16 18 19 20 23 26 28
10 4 5 16 17 10 9 10 9 6 6 8 7 5 6 7 7 10 10 7 12 14 7 4 7 7 6 7 5 3 5 4 3 2 2 4 2 3 12 16 9 8 9 14 16 8 1 1 0 2 3 3 2 5 4 3 4 5 3 7 11 12 15 12 8 8 7 5 7 10 7 5 6 5 5 7 6 7 9 7 9 16 20 20 20 22 23 24
5 2 4 8 9 7 7 9 11 7 6 7 4 3 6 8 6 7 6 5 11 15 8 2 8 8 6 7 5 2 3 3 2 2 2 3 3 4 11 10 6 10 11 11 13 6 2 3 2 1 3 3 4 10 11 7 5 7 8 8 11 12 14 15 13 10 8 6 11 11 7 7 8 7 7 8 7 7 8 8 11 16 19 20 20 22 24 24
2 4 7 6 4 3 5 9 11 9 9 8 3 3 6 8 7 7 6 5 9 10 5 3 8 9 7 7 4 2 3 2 1 2 3 3 4 5 8 5 3 11 12 8 8 4 3 2 3 3 7 7 6 11 13 8 6 8 10 12 12 13 17 19 17 11 10 11 14 10 9 9 8 7 9 9 9 9 10 12 15 16 17 18 18 20 23 24
4 5 7 6 4 5 8 12 13 10 8 7 4 2 5 7 9 8 6 6 7 6 4 4 7 10 9 6 4 2 2 2 2 2 2 4 4 3 4 3 3 10 11 6 5 2 2 2 3 4 7 9 8 9 9 7 6 8 11 12 14 16 18 20 17 13 13 14 13 7 10 11 9 8 10 12 12 11 9 10 11 13 16 19 19 19 21 21
5 4 7 7 6 9 11 11 8 6 6 7 4 1 3 6 9 9 8 7 7 5 5 6 9 11 9 7 5 4 3 2 2 2 2 4 4 1 1 2 2 7 8 4 3 3 1 2 3 3 5 7 8 7 8 9 9 10 11 12 14 17 18 17 15 13 11 12 11 8 8 9 8 6 9 12 11 6 4 7 11 15 17 19 18 19 19 19
8 7 9 8 5 6 7 6 4 4 4 3 2 3 5 6 8 10 10 9 7 4 4 8 10 9 7 7 7 7 7 6 5 6 7 6 6 5 4 3 3 5 4 2 2 2 1 1 2 4 3 5 6 6 11 15 13 11 14 14 13 14 13 11 10 10 11 11 11 11 9 7 7 6 8 12 9 5 6 9 12 15 17 17 18 19 20 20
11 9 8 6 4 4 4 3 3 3 3 1 2 5 6 7 10 10 8 6 5 7 9 10 10 7 4 6 7 8 11 14 15 17 17 14 14 13 13 12 10 5 2 1 2 2 2 1 1 2 1 4 7 7 10 12 10 9 12 10 10 11 10 8 7 9 13 13 11 11 10 8 8 8 7 10 10 9 10 10 9 11 13 16 18 21 22 23
Wind_Direction
338 336 331 326 324 322 320 318 315 313 312 309 308 306 303 301 299 298 298 297 297 297 297 298 299 299 299 298 296 296 294 290 289 281 272 275 278 265 258 255 251 251 238 217 211 191 174 175 180 184 180 176 180 187 187 192 188 186 184 208 239 239 228 213 204 202 199 211 171 170 169 156 151 163 158 158 151 147 155 165 172 180 238 191 177 169 169 168
340 338 333 329 327 323 321 318 315 314 311 310 308 305 303 301 299 297 296 295 295 295 295 296 296 298 299 298 299 301 298 296 294 281 277 291 285 264 247 245 245 241 235 213 207 197 182 178 178 179 175 173 182 187 192 197 189 191 168 191 228 222 221 209 206 239 323 241 184 179 175 170 170 166 161 155 138 148 149 142 160 158 147 164 169 168 170 169
341 339 336 332 330 326 324 320 317 315 312 311 307 304 303 300 299 297 296 294 293 293 292 293 295 297 297 297 301 302 305 306 297 287 286 284 256 244 231 230 229 226 225 212 206 205 196 183 178 176 170 176 187 180 189 196 195 207 201 231 241 236 256 259 259 275 299 240 179 181 180 177 171 167 165 153 148 164 168 156 156 151 152 159 165 169 170 169
339 338 336 333 331 328 325 322 320 317 315 312 308 306 302 299 298 295 295 293 291 291 289 291 292 295 296 297 301 303 313 313 297 287 256 186 222 233 232 223 214 212 211 207 205 204 202 189 183 177 171 183 197 188 196 194 187 192 200 226 241 242 257 257 250 258 286 225 180 179 172 175 170 171 167 147 145 193 203 184 176 172 167 163 165 170 172 170
337 335 334 331 329 328 325 323 320 318 316 312 309 306 303 301 296 294 293 290 290 289 287 287 289 292 294 294 297 299 316 329 293 203 165 226 273 259 241 226 211 205 199 192 188 184 188 187 179 174 177 188 192 202 220 207 201 201 217 230 248 273 273 265 254 224 285 232 172 169 167 175 169 174 173 161 163 210 208 198 188 181 176 171 170 172 173 173
336 334 333 331 329 327 324 322 320 318 315 312 310 305 303 300 297 295 291 288 287 286 285 284 286 288 289 292 293 291 289 278 235 180 278 288 277 265 240 223 209 199 192 185 183 177 178 179 172 174 184 191 196 202 210 207 211 240 244 230 245 256 257 272 277 253 268 222 166 178 187 173 165 185 184 183 196 215 211 200 189 185 181 175 173 173 175 177
338 336 334 332 329 327 325 323 321 318 315 312 309 305 303 300 298 296 291 289 283 282 283 281 285 284 285 287 285 283 251 250 254 265 296 281 255 261 242 215 204 194 187 185 187 180 175 174 174 179 181 193 213 211 209 206 210 229 255 241 252 256 257 271 278 277 260 243 217 195 182 169 176 193 186 198 210 230 232 197 188 183 177 174 173 175 178 179
340 338 336 333 330 329 326 324 322 320 316 312 308 305 303 300 298 296 292 289 282 280 279 278 283 281 282 281 279 282 254 256 276 302 285 259 237 259 239 202 195 190 185 186 189 183 177 175 179 183 182 210 203 197 208 214 222 228 247 258 264 264 264 271 275 279 267 250 237 197 175 185 192 185 183 206 212 228 230 190 184 177 173 174 175 177 179 180
343 340 337 335 332 330 327 325 323 320 317 312 308 305 303 301 299 297 292 287 280 275 274 276 279 278 280 274 273 274 262 268 283 288 271 231 221 245 214 190 185 183 180 185 190 187 180 177 185 183 180 224 219 221 194 192 232 228 240 252 260 262 266 273 273 276 272 254 221 186 186 200 193 180 195 211 206 212 202 182 179 175 173 175 177 179 180 182
345 342 340 337 334 332 328 326 323 320 316 311 308 306 303 301 299 295 290 286 279 272 269 270 273 276 274 265 251 247 268 273 250 267 246 196 197 192 191 182 177 178 178 183 187 190 188 186 193 189 193 234 223 244 213 203 255 255 261 258 257 260 267 271 268 270 273 262 214 192 202 203 187 183 215 207 196 195 182 173 176 175 175 177 179 181 183 185
347 346 343 340 338 334 331 328 326 322 316 311 309 307 305 303 298 293 289 284 278 272 265 264 267 269 268 256 231 233 259 247 218 246 184 181 188 183 189 181 177 181 184 186 189 194 196 201 197 187 209 244 214 242 241 241 261 277 283 279 270 265 268 265 260 264 266 259 220 200 195 188 181 204 214 189 185 188 176 169 174 176 178 180 181 183 185 187
348 346 344 342 339 336 334 332 329 324 318 313 310 309 308 303 297 293 290 285 279 272 261 258 260 261 264 253 241 241 248 239 240 251 204 173 172 182 198 196 192 191 192 190 193 201 204 211 199 185 197 222 193 247 266 241 249 281 289 288 289 297 286 268 257 255 240 241 212 183 136 183 195 217 201 179 178 179 175 170 174 178 179 181 183 185 187 189
348 346 344 342 340 337 336 335 333 328 321 317 315 314 310 303 300 297 293 288 280 271 261 254 253 255 250 248 251 250 247 243 250 248 223 199 190 193 205 212 209 206 208 206 201 201 206 213 205 200 206 198 162 191 276 287 300 303 291 239 289 331 303 276 270 241 221 226 184 160 132 230 212 210 176 176 176 169 170 171 175 179 181 183 185 187 190 190
346 344 342 340 339 337 335 336 335 330 324 323 322 318 312 307 305 301 296 292 281 269 259 250 247 243 233 246 261 265 257 248 247 242 227 223 228 222 209 209 214 215 216 218 214 207 209 214 210 210 217 218 226 261 298 321 347 317 303 259 280 296 277 287 32 144 202 220 174 162 237 234 216 198 172 176 176 170 169 172 178 180 182 185 186 189 192 193
345 343 341 339 338 336 335 335 335 331 328 328 327 321 316 314 311 306 301 293 282 268 257 247 238 225 234 259 268 271 262 248 242 237 227 230 235 229 214 206 212 213 213 218 223 223 220 215 210 210 223 227 238 272 317 325 342 40 292 294 307 219 264 297 298 176 219 221 174 170 254 247 221 184 173 175 175 174 173 175 181 182 184 187 188 191 193 195
344 342 340 339 337 336 335 336 336 333 331 333 332 326 322 321 317 310 304 303 306 283 247 237 228 214 239 277 273 267 258 246 238 231 226 229 231 227 220 210 209 209 211 216 222 225 225 214 210 214 223 225 217 201 303 297 302 13 174 250 268 228 273 306 305 216 222 212 176 190 224 272 245 174 171 175 176 176 175 178 182 184 186 188 189 192 194 195
343 342 340 339 337 335 336 338 338 334 334 336 335 331 327 321 311 294 289 321 347 342 238 209 200 218 250 261 267 268 253 243 234 225 224 224 224 225 221 214 208 205 205 210 218 219 214 200 199 215 216 206 163 152 188 241 241 289 178 230 253 229 249 281 305 321 200 164 193 216 224 266 297 170 171 176 179 178 177 181 184 186 188 189 191 193 195 196
343 341 340 339 337 336 336 339 339 338 338 338 341 336 322 311 294 278 272 301 330 342 265 192 153 208 259 242 249 253 225 222 219 218 219 214 216 220 216 210 208 202 192 197 213 204 198 197 181 192 211 197 181 167 199 221 193 188 199 223 263 237 239 253 267 306 358 199 210 220 232 257 313 164 173 179 181 180 183 185 185 187 189 190 192 194 197 199
342 341 340 338 338 337 338 341 341 344 342 342 349 337 316 313 295 273 266 286 300 273 258 202 174 207 269 246 255 249 231 229 224 218 213 206 204 206 208 209 206 194 171 160 206 189 179 186 185 202 217 195 193 195 205 183 139 170 179 188 227 235 248 246 252 272 300 284 243 220 231 240 213 177 182 182 184 185 187 185 185 189 191 192 194 197 200 202
342 341 338 337 337 336 340 344 343 349 352 350 354 349 350 352 329 287 298 290 274 260 267 254 229 245 262 265 273 270 253 246 242 225 212 211 199 192 195 196 190 184 163 145 182 179 170 183 219 209 202 185 194 204 199 179 175 200 192 202 225 238 259 250 256 275 273 258 260 231 231 243 213 192 191 182 183 188 188 184 187 191 193 195 196 199 202 206
341 339 337 336 335 335 341 346 345 355 0 355 3 26 37 18 3 318 319 304 283 270 269 267 255 256 260 261 265 270 277 275 254 230 212 213 200 185 187 182 165 181 184 154 145 156 169 203 224 201 186 180 187 188 182 192 205 221 228 244 252 241 258 256 233 266 256 207 277 269 243 249 221 199 196 181 182 194 192 186 190 194 195 198 199 201 205 208
340 337 336 334 333 334 339 346 347 359 358 353 19 38 36 13 359 324 316 299 292 290 278 272 264 259 260 258 257 259 267 274 256 236 210 197 198 187 179 178 176 185 177 154 144 152 191 225 213 183 178 174 180 179 175 190 196 210 220 229 255 242 262 279 246 259 240 211 273 279 248 252 228 186 186 190 196 203 198 193 194 194 194 198 201 204 206 206
340 337 335 332 332 331 336 346 350 353 352 351 33 26 14 356 350 331 309 276 288 291 278 269 260 255 255 253 251 245 238 237 244 238 213 190 196 191 175 175 187 177 161 178 188 182 208 237 193 170 171 168 181 184 169 184 194 201 196 200 246 233 211 271 279 292 240 216 256 261 247 274 274 174 188 201 206 212 211 208 207 200 197 200 203 205 204 203
342 340 337 333 331 329 334 345 348 342 346 350 20 7 355 344 341 333 318 268 280 285 273 270 259 252 250 249 244 226 220 220 223 228 213 193 188 185 182 181 175 176 187 196 199 199 225 253 174 162 170 175 190 193 167 182 215 218 201 206 239 232 202 236 281 326 317 292 274 103 334 310 218 185 204 203 203 213 215 214 219 213 208 208 208 208 207 205
345 343 339 335 333 330 333 342 343 339 344 350 327 337 338 335 333 334 326 277 282 279 272 266 247 248 245 236 228 211 210 221 223 221 209 196 189 171 176 183 171 190 200 192 197 214 233 236 158 157 170 177 190 205 184 179 210 244 220 214 229 232 211 226 325 1 355 318 278 154 270 295 256 207 217 200 196 208 209 207 214 214 211 212 212 213 212 211
346 345 341 337 337 333 334 347 343 337 346 22 288 320 323 326 332 332 330 321 293 263 224 221 220 239 220 196 193 181 179 238 234 223 209 201 196 177 158 175 178 200 191 175 192 224 216 183 153 163 177 176 191 214 198 170 190 246 214 194 213 217 208 210 187 24 258 258 271 162 184 270 308 253 227 204 200 209 208 209 213 211 210 212 213 213 213 213
348 346 342 338 342 340 340 350 342 333 341 323 305 317 317 321 331 323 338 4 288 223 147 172 192 148 172 185 170 153 141 243 225 215 203 197 194 185 179 175 179 193 164 136 216 215 164 167 170 176 175 180 201 214 186 160 185 232 161 147 171 189 205 199 171 195 221 246 278 237 175 252 288 254 226 194 201 221 219 220 216 210 211 213 214 214 214 214
348 346 343 339 343 344 342 348 345 335 332 321 315 317 315 318 314 267 96 336 276 171 119 156 113 101 139 172 171 171 272 129 124 209 198 189 187 185 191 188 178 182 162 160 208 194 150 173 186 184 184 197 204 193 163 166 201 211 134 133 157 169 188 172 161 207 221 249 270 237 176 231 269 264 246 177 190 224 226 225 221 212 213 213 214 215 216 217
347 346 344 341 342 342 339 349 354 338 323 318 319 312 312 312 287 115 101 267 263 57 65 124 87 57 116 153 187 217 296 16 26 195 182 183 188 187 199 195 173 168 181 190 206 190 162 190 192 184 193 210 202 175 161 179 210 189 137 150 87 130 162 145 166 201 149 213 252 240 175 209 267 272 248 166 192 218 224 225 225 220 218 215 214 216 217 218
346 344 343 344 345 341 336 342 350 339 321 317 319 314 314 302 143 105 182 240 276 356 25 88 62 347 87 123 224 256 273 309 359 146 170 181 189 187 181 178 163 141 189 216 217 216 230 195 190 185 198 207 200 182 179 189 191 133 130 225 283 331 9 42 135 122 172 249 248 230 182 191 261 251 189 183 197 208 217 223 224 224 223 220 217 216 217 218
345 341 342 347 347 342 339 334 336 337 322 314 316 314 311 308 109 157 211 258 331 342 16 33 18 1 5 186 268 259 248 280 1 139 169 178 179 181 149 156 161 128 170 232 227 230 277 189 182 198 200 194 178 187 203 194 174 137 126 162 226 314 345 345 358 78 226 248 238 208 171 177 239 240 194 214 210 202 208 214 217 218 219 220 219 217 217 218
345 340 342 348 346 344 347 336 330 331 326 319 315 305 266 139 224 209 237 326 346 341 14 338 328 356 318 275 244 217 215 243 197 157 181 182 176 184 174 172 172 153 195 220 206 207 232 229 229 222 203 187 162 182 215 185 164 164 143 134 155 266 285 236 243 165 233 249 236 186 159 186 242 237 199 218 219 209 210 214 217 216 215 217 217 217 217 216
344 340 343 353 1 0 351 341 333 333 335 330 311 315 96 168 231 213 240 299 6 353 353 289 303 313 281 290 288 238 214 221 201 176 188 188 180 191 194 185 171 160 183 194 162 148 241 270 246 218 211 187 171 173 195 190 172 174 167 150 162 191 199 214 231 238 245 253 251 184 160 224 272 254 204 209 214 212 213 218 222 221 219 218 218 217 215 214
342 341 345 2 20 5 349 344 340 338 340 334 316 352 137 211 248 220 243 274 28 6 347 317 308 305 268 274 339 7 12 280 295 166 176 164 175 197 201 202 187 165 111 148 170 176 204 255 219 205 202 173 181 193 179 155 162 181 158 137 170 189 180 192 203 212 244 264 270 181 163 211 247 240 210 202 206 210 212 219 224 227 227 225 222 217 213 213
339 341 348 7 12 0 350 343 341 337 334 332 333 190 198 219 269 24 279 302 10 5 336 317 304 318 322 299 1 24 33 347 357 348 186 164 170 193 194 205 203 170 131 172 199 175 203 239 229 207 190 165 182 200 157 133 163 191 126 130 204 188 150 193 202 180 200 300 290 209 208 222 226 258 247 211 207 207 210 219 223 230 233 230 225 216 213 214
337 341 353 14 2 358 351 339 336 330 327 336 88 225 232 239 250 184 349 350 3 345 330 320 331 36 337 321 1 4 360 1 3 358 239 158 138 162 207 208 205 193 178 190 203 155 194 236 225 152 185 190 186 177 161 163 175 167 153 186 203 140 139 216 241 188 161 277 271 207 240 281 279 277 270 221 215 210 208 218 220 228 234 231 223 216 213 214
339 341 352 9 357 352 344 334 328 319 319 350 182 248 259 290 301 14 10 2 338 329 346 349 347 23 352 341 351 350 347 347 4 10 331 193 72 1 308 302 325 249 268 298 242 182 172 243 230 151 195 225 190 167 176 177 153 132 188 195 118 86 147 187 237 260 230 252 277 213 224 259 253 266 267 188 211 226 215 213 218 227 233 231 224 219 217 217
340 339 348 2 351 345 337 326 314 303 300 150 228 270 265 309 340 0 355 347 324 302 54 136 279 9 35 355 332 349 355 355 1 2 332 257 50 13 351 324 341 341 333 333 299 209 187 250 262 189 192 212 165 158 189 195 176 167 181 172 133 138 192 164 192 225 217 238 274 280 253 234 204 233 243 188 206 226 222 215 217 224 229 228 226 223 220 219
340 339 349 0 348 340 335 321 294 257 168 133 244 259 291 305 329 338 339 340 318 279 282 217 240 10 10 341 340 349 360 357 341 341 359 5 47 37 23 344 315 330 329 328 212 218 215 213 265 241 189 159 132 164 192 209 221 214 127 159 163 165 177 171 181 185 190 227 251 290 282 251 219 207 190 200 212 214 217 217 213 218 221 222 225 225 222 220
344 342 349 357 348 340 351 2 359 130 139 223 239 283 335 325 323 329 339 347 325 275 319 279 314 349 318 335 335 316 352 356 339 323 297 11 74 64 17 359 322 322 321 317 168 271 280 201 241 286 161 148 159 197 193 193 209 204 176 190 193 164 148 158 199 179 168 200 210 250 267 259 248 203 182 199 215 213 214 214 214 219 219 219 223 225 224 221
350 342 338 355 353 350 19 58 46 17 27 335 338 337 330 321 318 323 338 355 348 264 272 276 296 298 275 320 315 303 13 338 310 293 240 16 48 51 357 352 326 313 321 345 26 10 2 213 229 240 193 189 211 209 197 194 195 189 193 200 191 177 132 147 239 245 165 192 187 188 256 261 245 197 189 198 211 216 212 209 216 225 223 222 224 226 227 225
355 326 337 359 2 2 23 64 29 7 46 355 340 322 317 312 316 325 338 354 356 299 282 274 269 279 262 284 298 16 27 271 270 299 98 53 60 50 350 349 339 329 339 9 9 356 359 245 238 234 219 216 230 224 211 209 202 191 197 195 182 175 150 171 222 222 182 221 159 132 255 267 242 192 195 200 206 218 215 205 210 226 228 226 226 228 230 229
344 315 344 13 14 12 28 65 17 15 7 344 335 320 324 325 333 346 348 349 351 338 329 313 298 358 21 348 348 6 1 6 10 25 77 83 81 46 6 357 353 354 6 15 345 336 338 263 228 277 300 267 269 287 298 267 201 198 212 192 179 190 186 192 204 175 184 213 162 184 248 267 269 206 203 215 221 232 232 217 212 224 231 228 227 231 233 232
328 314 340 18 26 34 46 47 10 2 336 344 339 327 340 350 348 346 337 335 346 344 328 311 326 6 6 339 354 13 4 32 52 41 55 81 109 48 14 359 358 9 18 13 351 331 329 312 182 320 269 245 269 289 299 311 201 209 224 200 197 197 191 201 179 132 211 208 172 199 237 244 282 274 232 248 251 256 254 235 224 229 237 235 232 235 235 234
335 319 334 358 11 41 57 50 31 359 335 343 334 323 341 350 349 343 330 334 1 358 320 306 334 3 11 358 15 31 23 47 55 24 32 8 64 58 11 351 351 3 360 4 360 340 257 266 89 149 221 219 222 224 223 275 267 239 214 201 207 200 192 201 192 180 225 208 176 210 239 249 292 298 241 240 241 250 261 252 236 233 237 242 243 245 242 238
342 324 323 344 354 29 55 45 35 10 335 340 331 319 338 334 338 345 338 349 6 354 328 314 353 11 23 16 16 23 20 29 13 345 14 359 356 38 354 339 337 346 354 8 3 352 158 350 49 170 235 240 273 266 260 325 299 278 264 207 204 207 201 200 207 208 201 177 203 225 216 217 257 251 229 234 229 239 251 253 241 234 234 238 242 247 249 245
352 328 335 342 341 357 13 16 21 5 327 333 323 285 322 326 333 354 356 360 356 344 325 20 38 32 24 9 1 355 7 4 339 346 28 9 345 342 337 324 327 353 3 13 0 358 86 346 317 46 326 304 311 295 289 298 276 268 280 245 211 205 202 206 218 205 151 164 231 232 184 190 234 232 227 233 227 236 247 244 241 240 243 249 249 250 253 253
338 307 327 335 327 346 349 339 342 333 315 321 304 278 321 330 339 354 357 343 342 342 332 20 35 28 18 6 349 308 359 359 322 25 39 8 343 344 338 317 349 9 11 12 358 20 125 255 288 6 336 308 297 286 281 283 258 246 260 254 236 218 206 211 219 198 163 201 236 224 176 191 232 236 231 227 215 216 227 234 241 247 256 263 260 255 255 257
308 293 311 322 307 298 300 302 309 311 311 319 314 310 331 335 338 343 346 334 328 342 349 336 356 1 358 359 350 309 352 5 338 356 11 348 345 353 337 306 346 12 11 3 345 358 139 257 302 342 328 311 299 282 277 291 287 269 262 254 247 236 222 218 218 203 197 224 240 213 181 199 222 224 228 229 221 216 218 226 236 245 254 261 262 261 261 261
307 289 301 310 296 286 285 286 295 303 312 320 316 312 329 328 332 333 333 321 302 315 353 344 340 345 339 340 334 293 283 308 302 299 326 344 343 335 307 274 308 358 0 345 318 330 347 293 314 351 342 309 298 298 306 309 301 286 274 259 248 244 237 230 222 210 208 227 241 223 198 217 241 242 243 246 245 246 235 222 224 233 248 260 265 263 261 262
307 298 302 305 293 291 288 280 291 300 303 315 313 329 334 325 327 328 317 299 274 273 339 336 330 330 324 321 312 291 300 315 291 283 294 289 273 270 279 283 309 343 348 308 299 327 321 278 331 24 5 294 294 323 323 317 312 289 268 258 248 243 244 238 224 212 205 210 228 234 225 231 249 252 258 263 266 262 244 237 235 238 248 258 260 258 260 268
315 312 312 307 293 299 297 284 291 289 289 334 337 324 319 309 317 324 315 301 301 314 326 325 319 318 310 298 297 304 318 317 302 296 291 276 265 264 260 258 262 261 245 279 311 282 221 217 330 26 4 288 292 310 319 322 314 275 259 256 242 234 239 252 247 224 209 200 207 225 226 218 215 211 229 256 259 245 239 244 246 244 247 253 259 263 267 273